星链-4520 (STARLINK-4520 )

导读

STARLINK-4520是美国SpaceX公司星链(Starlink)互联网卫星星座的一员,于2022年8月10日发射入轨,属于低轨通信卫星。星链星座旨在为全球提供高速低延迟宽带互联网服务,该卫星采用平板设计,配备霍尔推进器与自主避撞系统,服役寿命约5-7年,退役后会主动离轨再入大气层烧毁,助力全球覆盖的天基通信网络构建。

基本信息
目录编号:
53400
目录名称:
STARLINK-4520
国际标识:
2022-097N
轨道中心:
EARTH
卫星名称:
星链-4520
卫星全名:
星链-4520 (STARLINK-4520 )
卫星状态:
在轨 (已飞行1486 天)
发射日期:
2022-08-10 UTC
国别 :
美国 (US)
星等 :
--
轨道信息
数据来源 国际轨道数据
星历时间: 2026-09-04T03:05:53+0800
8小时前
查看轨道信息
半长轴: 6837.787km
偏心率: 0.0001166
轨道倾角: 53.161°
近地点辐角 72.077°
升交点赤经 39.897°
平近点角 288.036°
近地点: 458.852km
远地点: 460.448km
周期: 93.785分钟
每日圈数: 15.35428
详细信息
固有亮度:
5
最大亮度:
2.5
卫星平台:
Starlink v1.5
覆盖范围:
全球
运营商:
太空探索技术公司
运营商所在国:
美国
制造商(研发单位):
太空探索技术公司
制造商所在国:
美国
使用方式:
暂无
卫星简介
星链(Starlink)计划是由太空探索技术公司(SpaceX)提出的一个巨型低轨卫星互联网星座项目,计划在2019年至2024年间在太空搭建由约1.2万颗卫星组成的“星链”网络,其中1584颗将部署在地球上空550千米处的近地轨道,并从2020年开始工作。该卫星仍在工作。
2D轨道图
3D轨道图
轨道高度分析图
轨道倾角分析图
轨道综合分析图
查看轨道综合分析图
交会数据列表
事件ID 空间交会对象 最接近时刻(TCA) 交会距离 交会风险概率(CRP) 交会风险指数(CRI) 操作
CDM_260905-071705-340006-615621
2026-09-05T
07:17:39+0000
1.443 km
极远距离
5.167339E-6 低风险 0.49
CDM_260905-140105-340006-277721
2026-09-05T
14:01:53+0000
2.122 km
极远距离
2.193032E-6 低风险 0.42
CDM_260905-025905-340006-823321
2026-09-05T
02:59:18+0000
2.532 km
极远距离
1.477584E-6 低风险 0.38
CDM_260905-122305-340006-031521
2026-09-05T
12:23:13+0000
2.563 km
极远距离
1.46703E-6 低风险 0.38
CDM_260905-045705-340006-615621
2026-09-05T
04:57:01+0000
2.325 km
极远距离
1.432563E-6 低风险 0.38
CDM_260905-132605-340005-878421
2026-09-05T
13:26:01+0000
2.729 km
极远距离
1.297593E-6 低风险 0.37
CDM_260904-155905-340006-550221
2026-09-04T
15:59:54+0000
2.804 km
极远距离
1.205785E-6 低风险 0.37
CDM_260905-124405-340006-025821
2026-09-05T
12:44:36+0000
2.654 km
极远距离
1.19411E-6 低风险 0.37
CDM_260905-112704-945505-340021
2026-09-05T
11:27:40+0000
2.627 km
极远距离
1.176474E-6 低风险 0.36
CDM_260901-160505-340006-606421
2026-09-01T
16:05:05+0000
2.749 km
极远距离
1.145158E-6 低风险 0.36